Regional Weather Roundup
Issued by NWS Cleveland, OH

Home | Current Version | Previous Version | Graphics & Text | Print | Product List | Glossary On
Versions: 1 2 3 4 5 6 7 8 9 10 11 12 13 14 15 16 17 18 19 20 21 22 23 24 25 26 27 28 29 30 31 32 33 34 35 36 37 38 39 40 41 42 43 44 45 46 47 48 49 50
000
ASUS41 KCLE 202302
RWRCLE
OHIO REGIONAL WEATHER ROUNDUP
NATIONAL WEATHER SERVICE CLEVELAND, OH
700 PM EDT WED AUG 20 2014

NOTE: "FAIR" INDICATES FEW OR NO CLOUDS BELOW 12,000 FEET WITH NO
SIGNIFICANT WEATHER AND/OR OBSTRUCTIONS TO VISIBILITY.

OHZ001>008-015>018-024>027-034-035-043-044-210000-
   NORTHWEST OHIO

CITY           SKY/WX    TMP DP  RH WIND       PRES   REMARKS
DEFIANCE       SUNNY     83  65  54 NW3       29.88F
FINDLAY        SUNNY     83  66  56 W10       29.90S
TOLEDO EXPRESS SUNNY     83  64  52 W8        29.88S
TOLEDO EXEC    MOSUNNY   83  63  50 W13       29.89S
LIMA           SUNNY     82  66  58 W8        29.91F
$$

OHZ009>014-019>023-028>033-038-089-210000-
   NORTHEAST OHIO

CITY           SKY/WX    TMP DP  RH WIND       PRES   REMARKS
CLE-HOPKINS    PTSUNNY   79  67  66 W6        29.92F
CLE-LAKEFRONT  PTSUNNY   77  69  76 CALM      29.90S
CUY CO. ARPT   PTSUNNY   79  70  73 W9        29.92S
LORAIN-ELYRIA  PTSUNNY   82  69  64 N7        29.92R
ASHTABULA      PTSUNNY   75  69  81 S5        29.93F
AKRON-CANTON   MOSUNNY   79  67  66 SW5       29.93F
WOOSTER        SUNNY     79  67  66 W7        29.93S
MANSFIELD      MOSUNNY   81  65  58 W6        29.94S
YOUNGSTOWN     TSTM      70  67  90 SW5       29.95F
$$

OHZ042-051>053-060>062-070>072-077>081-210000-
  SOUTHWEST OHIO

CITY           SKY/WX    TMP DP  RH WIND       PRES   REMARKS
CINC-COVINGTON PTSUNNY   76  68  76 CALM      29.96S
CINC-LUNKEN    PTSUNNY   74  69  85 S5        29.95S
HAMILTON       PTSUNNY   78  69  73 SW5       29.94S
DAYTON         MOSUNNY   85  64  49 W10       29.94F
WRIGHT-PAT AFB SUNNY     85  64  48 VRB5      29.92F
DAYTON GENERAL MOSUNNY   84  66  54 W8        29.93F
WILMINGTON     MOSUNNY   82  64  54 W6        29.93F
$$

OHZ036-037-039>041-045>050-054>059-063>069-073>076-082>088-210000-
  CENTRAL AND SOUTHEAST OHIO

CITY           SKY/WX    TMP DP  RH WIND       PRES   REMARKS
COLUMBUS       MOSUNNY   87  62  43 NW13      29.91F
OSU AIRPORT    SUNNY     83  64  52 W12       29.92F
BOLTON FIELD   SUNNY     82  64  54 W7        29.93F
RICKENBACK AFB SUNNY     87  58  37 W7        29.91F
NEWARK         MOSUNNY   79  72  79 CALM      29.92F
MARION         SUNNY     82  66  58 W7        29.92F
LANCASTER      SUNNY     83  66  56 W8        29.93F
ZANESVILLE     HVY RAIN  72  67  84 SW9       29.95R
NEW PHILLY     SUNNY     76  70  82 CALM      29.94S
$$



USA.gov is the U.S. government's official web portal to all federal, state and local government web resources and services.